Regional Weather Roundup
Issued by NWS

Home | Current Version | Previous Version | Text Only | Print | Product List | Glossary Off
Versions: 1 2 3 4 5 6 7 8 9 10 11 12 13 14 15 16 17 18 19 20 21 22 23 24 25 26 27 28 29 30 31 32 33 34 35 36 37 38 39 40 41 42 43 44 45 46 47 48 49 50

406
ASUS43 KOAX 032310
RWRNE

WEATHER ROUNDUP FOR NEBRASKA
NATIONAL WEATHER SERVICE OMAHA NE
600 PM CDT TUE MAY 03 2016

NOTES: SATELLITE DATA IS BEING USED TO AUGMENT CLOUD COVER ABOVE
       12000 FEET.
       "FAIR" INDICATES FEW OR NO CLOUDS BELOW 12,000 FEET WITH NO
       SIGNIFICANT WEATHER AND/OR OBSTRUCTIONS TO VISIBILITY.

  * THESE STATIONS DO NOT REPORT WEATHER SUCH AS RAIN...SNOW OR FOG.

NEZ001>004-019>022-054>056-040000-
NEBRASKA PANHANDLE

CITY           SKY/WX    TMP DP  RH WIND       PRES   REMARKS
SCOTTSBLUFF    MOSUNNY   73  35  25 N14       30.10F
ALLIANCE       SUNNY     69  36  29 N12       30.09F
CHADRON        SUNNY     74  36  25 N10       30.08S
KIMBALL        MOSUNNY   67  36  31 N14       30.16R
SIDNEY         SUNNY     69  24  18 N20G25    30.13S
$$

NEZ057>060-069>072-079>082-040000-
SOUTHWEST NEBRASKA

CITY           SKY/WX    TMP DP  RH WIND       PRES   REMARKS
NORTH PLATTE   SUNNY     70  37  29 NW9       30.03F
IMPERIAL       SUNNY     69  34  27 N12G21    30.07F
LEXINGTON      SUNNY     67  41  37 NW9G17    30.02F
MCCOOK         SUNNY     69  40  34 NW8       30.04F
OGALLALA       SUNNY     69  31  24 N14       30.07S
$$

NEZ005>010-023>029-035>040-094-040000-
NORTH CENTRAL NEBRASKA

CITY           SKY/WX    TMP DP  RH WIND       PRES   REMARKS
VALENTINE      SUNNY     71  34  25 N15G25    30.01F
AINSWORTH      SUNNY     69  38  32 N14G23    30.01S
BROKEN BOW     LGT RAIN  69  39  33 NW18      30.00F
O`NEILL        SUNNY     70  40  34 NW15G21   29.97F
ORD            SUNNY     69  39  33 NW16      29.97F
THEDFORD       SUNNY     71  36  27 N12G18    30.03F
$$

NEZ041-046>049-061>064-073>077-083>087-040000-
SOUTH CENTRAL NEBRASKA

CITY           SKY/WX    TMP DP  RH WIND       PRES   REMARKS
GRAND ISLAND   MOSUNNY   69  40  34 W13       29.99F
AURORA         MOSUNNY   69  38  32 NW12G22   29.98F
HASTINGS       MOSUNNY   68  40  35 NW12      30.00F
HEBRON         MOSUNNY   70  38  30 NW8       29.99S
HOLDREGE       SUNNY     67  38  35 NW8       30.02F
KEARNEY *      MOSUNNY   68  39  34 NW10      30.02F
YORK           MOSUNNY   68  39  34 NW10      29.98F
$$

NEZ011>018-030>034-042>045-040000-
NORTHEAST NEBRASKA

CITY           SKY/WX    TMP DP  RH WIND       PRES   REMARKS
NORFOLK        SUNNY     70  42  36 NW15G23   29.92F
ALBION         SUNNY     68  42  38 NW13G23   29.96S
BLAIR          PTSUNNY   71  41  34 W12G18    29.92F
COLUMBUS *     SUNNY     70  41  35 NW13G21   29.95F
FREMONT        SUNNY     70  42  36 W17G24    29.93F
TEKAMAH        MOSUNNY   69  42  37 W22G29    29.90F
WAYNE          SUNNY     70  43  37 NW18G26   29.92F
$$

NEZ050>053-065>068-078-088>093-040000-
SOUTHEAST NEBRASKA

CITY           SKY/WX    TMP DP  RH WIND       PRES   REMARKS
LINCOLN        MOSUNNY   71  38  29 W14       29.96F
OMAHA EPPLEY   PTSUNNY   71  42  35 W15G25    29.91F
BEATRICE       MOSUNNY   68  41  37 NW8       29.97S
FALLS CITY     MOSUNNY   67  42  40 NW10      29.95F
NEBRASKA CITY  PTSUNNY   69  39  33 NW12      29.95F
PLATTSMOUTH    PTSUNNY   72  40  32 W17       29.93F
$$

NEZ044-045-051>053-067-040000-
OMAHA AREA

CITY           SKY/WX    TMP DP  RH WIND       PRES   REMARKS
OMAHA EPPLEY   PTSUNNY   71  42  35 W15G25    29.91F
BLAIR          PTSUNNY   71  41  34 W12G18    29.92F
FREMONT        SUNNY     70  42  36 W17G24    29.93F
MILLARD        PTSUNNY   70  43  37 W12G18    29.92F
OFFUTT AFB     PTSUNNY   70  43  38 NW16G26   29.91F
PLATTSMOUTH    PTSUNNY   72  40  32 W17       29.93F
WAHOO          MOCLDY    71  42  35 NW20G26   29.93F
$$




USA.gov is the U.S. government's official web portal to all federal, state and local government web resources and services.